Location: Staunton
(38.1490°N, 79.0720°W)
Time: 13:52:04
(UTC-05:00)

ISS - Pass Details

Date: 16 December 2017
Orbit: 402 x 407 km, 51.6° (Epoch: 11 December)

Event Time Altitude Azimuth Distance (km) Brightness Sun altitude
Rises 18:50:41 0° 293° (WNW) 2,323 0.9 -21.4°
Reaches altitude 10° 18:53:16 10° 272° (W) 1,458 0.0 -21.9°
Maximum altitude 18:55:27 17° 230° (SW) 1,112 -0.9 -22.3°
Drops below altitude 10° 18:57:38 10° 188° (S) 1,449 -0.8 -22.8°
Enters shadow 18:58:43 - 176° (S) 1,776 -0.5 -23.0°
